Location: Casa Rossa
(45.2389°N, 12.2056°E)
Time: 03:49:00
(UTC+00:00)

Cosmos 1697 Rocket - Pass Details

Date: 14 July 2020
Orbit: 834 x 842 km, 71.0° (Epoch: 11 August)

Event Time Altitude Azimuth Distance (km) Brightness Sun altitude
Rises 00:25:30 0° 338° (NNW) 3,398 6.6 -21.3°
Reaches altitude 10° 00:28:07 10° 346° (NNW) 2,458 5.9 -21.2°
Maximum altitude 00:33:24 40° 56° (NE) 1,220 3.9 -20.9°
Drops below altitude 10° 00:38:38 10° 125° (SE) 2,441 4.9 -20.6°
Enters shadow 00:40:52 - 132° (SE) 3,242 5.5 -20.5°
